Overview Statistics Trail Chart Weather Telemetry Raw packets
 

This is the latest recevied weather packets stored in our database for station/object KC1HBM. If no packets are shown the sender has not sent any weather packets the latest 10 day(s).

<< 101 102 103 104 105 106 107 >>
Time Temp. Humidity Pressure Rain* Wind** Luminosity Snow
1787858120 23.33° C 88% 1014.1 hPa 0 mm - 120 W/m² -
1787857815 23.33° C 87% 1014.2 hPa 0 mm - 108 W/m² -
1787857510 23.33° C 87% 1014.2 hPa 0 mm - 94 W/m² -
1787857214 23.89° C 88% 1014.2 hPa 0 mm - 86 W/m² -
1787856904 23.33° C 88% 1014 hPa 0 mm - 83 W/m² -
1787856603 23.33° C 88% 1014.1 hPa 0 mm - 81 W/m² -
1787856298 23.89° C 88% 1014 hPa 0 mm - 198 W/m² -
1787855994 23.89° C 87% 1014 hPa 0 mm - 101 W/m² -
1787855693 23.89° C 87% 1014.2 hPa 0 mm - 98 W/m² -
1787855389 23.33° C 88% 1014.3 hPa 0 mm - 127 W/m² -
1787855084 23.33° C 89% 1014.4 hPa 0 mm - 112 W/m² -
1787854779 23.89° C 88% 1014.3 hPa 0 mm - 90 W/m² -
1787854478 23.89° C 88% 1014.4 hPa 0 mm - 95 W/m² -
1787854173 23.33° C 89% 1014.4 hPa 0 mm - 94 W/m² -
1787853869 22.78° C 91% 1014.4 hPa 0 mm - 143 W/m² -
1787853567 22.22° C 91% 1014.5 hPa 0 mm - 121 W/m² -
1787853262 22.22° C 91% 1014.7 hPa 0 mm - 84 W/m² -
1787852962 22.78° C 90% 1014.9 hPa 0 mm - 62 W/m² -
1787852662 22.78° C 90% 1014.7 hPa 0 mm - 54 W/m² -
1787852361 23.33° C 88% 1014.8 hPa 0 mm - 58 W/m² -
1787852055 23.89° C 87% 1014.4 hPa 0 mm - 99 W/m² -
1787851755 23.89° C 86% 1014.7 hPa 0 mm - 206 W/m² -
1787851449 23.89° C 84% 1014.5 hPa 0 mm - 216 W/m² -
1787851145 24.44° C 83% 1014.6 hPa 0 mm - 681 W/m² -
1787850840 24.44° C 85% 1014.6 hPa 0 mm - 714 W/m² -

* Rain latest hour (hover to see other rain measurements)
** Current wind speed in m/s (hover to see current wind gust speed)